Regional Weather Roundup
Issued by NWS

Home | Current Version | Previous Version | Graphics & Text | Print | Product List | Glossary On
Versions: 1 2 3 4 5 6 7 8 9 10 11 12 13 14 15 16 17 18 19 20 21 22 23 24 25 26 27 28 29 30 31 32 33 34 35 36 37 38 39 40 41 42 43 44 45 46 47 48 49 50
000
ASUS43 KBIS 072210
RWRND

NORTH DAKOTA REGIONAL WEATHER ROUNDUP
NATIONAL WEATHER SERVICE BISMARCK ND
500 PM CDT TUE JUL 07 2015

NOTE: "FAIR" INDICATES FEW OR NO CLOUDS BELOW 12,000 FEET WITH NO
SIGNIFICANT WEATHER AND/OR OBSTRUCTIONS TO VISIBILITY.


NDZ001>003-009>011-017-072300-
NORTHWEST NORTH DAKOTA

CITY           SKY/WX    TMP DP  RH WIND       PRES   REMARKS
WILLISTON      MOSUNNY   82  44  26 SW9       29.97F
MINOT          SUNNY     75  54  47 S9        29.99F
MINOT AFB      MOSUNNY   77  60  56 S9        29.98F
$$

NDZ018>021-031>035-040>046-072300-
SOUTHWEST NORTH DAKOTA

CITY           SKY/WX    TMP DP  RH WIND       PRES   REMARKS
BISMARCK       PTSUNNY   74  55  51 S15       30.04F
DICKINSON      MOSUNNY   71  58  63 SE16      29.98F
GARRISON         N/A     73  58  59 S14       30.01F
HETTINGER ARPT MOSUNNY   75  57  53 SE21G28   29.99F
$$

NDZ004>008-012>016-024-026-027-054-072300-
NORTHEAST NORTH DAKOTA

CITY           SKY/WX    TMP DP  RH WIND       PRES   REMARKS
GRAND FORKS    MOSUNNY   74  43  32 S13       30.07F
GRND FRKS AFB  MOSUNNY   73  46  37 S10       30.08F
DEVILS LAKE    MOSUNNY   73  48  40 S13G20    30.04F
$$

NDZ022-023-025-028>030-036>039-047>053-072300-
SOUTHEAST NORTH DAKOTA

CITY           SKY/WX    TMP DP  RH WIND       PRES   REMARKS
FARGO          SUNNY     73  43  33 S10       30.11S
JAMESTOWN      SUNNY     73  48  41 S13       30.08F
$$



USA.gov is the U.S. government's official web portal to all federal, state and local government web resources and services.